TimeCDT,TemperatureF,Dew PointF,Humidity,Sea Level PressureIn,VisibilityMPH,Wind Direction,Wind SpeedMPH,Gust SpeedMPH,PrecipitationIn,Events,Conditions,WindDirDegrees,DateUTC
12:53 AM,70.0,48.9,47,30.03,10.0,SSE,13.8,-,N/A,,Clear,160,2011-10-03 05:53:00
1:53 AM,66.9,48.0,51,30.03,10.0,SSE,11.5,-,N/A,,Clear,160,2011-10-03 06:53:00
3:53 AM,64.9,45.0,48,30.02,10.0,SSE,8.1,-,N/A,,Clear,150,2011-10-03 08:53:00
4:53 AM,63.0,44.1,50,30.02,10.0,SSE,10.4,-,N/A,,Clear,160,2011-10-03 09:53:00
5:53 AM,62.1,43.0,50,30.03,10.0,SSE,10.4,-,N/A,,Clear,160,2011-10-03 10:53:00
6:53 AM,60.1,42.1,51,30.05,10.0,South,9.2,-,N/A,,Clear,170,2011-10-03 11:53:00
7:53 AM,59.0,43.0,55,30.07,10.0,SSE,8.1,-,N/A,,Clear,160,2011-10-03 12:53:00
9:53 AM,71.1,46.0,41,30.09,10.0,SE,9.2,-,N/A,,Clear,130,2011-10-03 14:53:00
10:53 AM,75.0,46.0,36,30.09,10.0,SE,11.5,-,N/A,,Clear,130,2011-10-03 15:53:00
11:53 AM,79.0,44.1,29,30.08,10.0,SE,17.3,21.9,N/A,,Clear,130,2011-10-03 16:53:00
1:53 PM,82.9,42.1,24,30.04,10.0,SE,19.6,28.8,N/A,,Clear,140,2011-10-03 18:53:00
2:53 PM,84.0,42.1,23,30.01,10.0,SSE,16.1,23.0,N/A,,Clear,150,2011-10-03 19:53:00
3:53 PM,82.9,41.0,23,30.00,10.0,SE,17.3,24.2,N/A,,Clear,140,2011-10-03 20:53:00
4:53 PM,84.0,39.9,21,29.99,10.0,SE,15.0,24.2,N/A,,Clear,140,2011-10-03 21:53:00
5:53 PM,82.0,42.1,24,29.99,10.0,ESE,17.3,25.3,N/A,,Clear,120,2011-10-03 22:53:00
6:53 PM,79.0,43.0,28,30.00,10.0,SE,18.4,27.6,N/A,,Clear,140,2011-10-03 23:53:00
8:53 PM,73.0,45.0,37,30.03,10.0,SE,13.8,21.9,N/A,,Clear,130,2011-10-04 01:53:00
9:53 PM,71.1,44.1,38,30.04,10.0,SE,15.0,-,N/A,,Clear,140,2011-10-04 02:53:00
10:53 PM,69.1,43.0,39,30.04,10.0,SE,15.0,-,N/A,,Clear,140,2011-10-04 03:53:00
11:53 PM,68.0,42.1,39,30.03,10.0,SE,15.0,20.7,N/A,,Clear,140,2011-10-04 04:53:00